Dewpoint
61 56 60 60 56 56 57 60 61 60 60 63 65 63 62 64 68 70 70 72 73 73 74 75 75 75 75 75 76 76 76 76 76 76 74 74 73 73 72 71 71 74 71 71 73 74 75 76 75 74 76 75 76 77 78 78 79 74 77 80 79 79 79
60 56 57 57 58 59 61 62 62 61 60 62 65 66 63 64 68 67 70 72 73 73 73 74 75 74 75 75 74 77 76 76 75 76 74 77 78 77 74 74 75 76 77 76 75 75 76 73 75 75 75 76 75 78 76 77 78 78 77 78 77 80 79
62 60 57 57 57 58 60 59 60 60 61 62 64 64 63 68 67 69 70 70 72 73 72 72 74 74 75 75 76 75 74 74 73 72 72 71 73 70 73 76 75 73 73 74 76 74 73 74 77 77 76 75 73 77 77 78 78 76 78 78 77 76 78
62 60 60 59 60 60 59 59 60 60 59 61 62 64 63 68 66 69 69 69 71 72 72 72 72 72 72 74 75 74 75 75 74 71 70 71 72 71 73 75 75 72 74 73 71 72 71 74 74 77 76 77 77 76 76 76 75 76 77 78 78 77 79
61 61 59 59 59 59 58 59 58 63 61 61 62 66 65 64 64 65 67 68 69 70 70 70 70 71 72 72 72 71 72 72 73 72 71 73 74 73 70 71 70 71 72 71 74 76 77 75 73 76 75 78 75 77 76 77 76 77 78 78 79 77 77
62 62 64 60 60 57 58 58 59 63 63 60 63 63 63 63 63 63 65 67 68 68 69 70 68 71 71 71 70 70 72 74 75 75 73 72 74 71 71 72 68 71 71 71 72 72 73 73 73 74 72 73 73 73 73 74 74 73 76 78 77 75 73
62 62 64 63 59 59 57 59 60 63 63 62 64 64 63 64 64 65 64 64 65 67 67 67 66 68 70 71 71 73 71 70 72 72 71 71 72 71 72 71 72 71 73 73 73 72 73 72 73 73 72 71 73 71 74 77 75 75 77 77 77 77 79
65 64 67 67 61 58 57 60 62 60 62 67 72 69 65 63 62 64 62 63 63 68 69 69 67 69 70 70 69 68 70 70 70 71 71 69 71 72 69 69 72 73 73 70 73 72 70 71 71 73 73 70 71 74 73 75 77 72 74 76 76 76 72
64 65 67 66 64 60 59 60 61 60 64 67 68 69 70 71 68 62 62 65 65 69 69 65 67 69 72 70 69 70 68 69 70 70 71 69 70 68 68 70 70 71 71 69 69 73 71 69 69 74 75 73 75 76 75 77 74 74 75 76 76 75 72
63 66 67 68 68 73 73 67 65 65 66 68 69 72 72 73 70 69 67 64 64 64 65 64 68 71 72 71 70 66 67 69 68 67 67 67 68 68 68 69 69 71 69 70 68 69 71 70 70 74 76 74 76 76 75 75 74 73 73 76 76 75 76
66 68 67 69 70 71 73 74 67 68 67 70 72 72 72 73 73 72 70 70 71 69 69 70 71 72 72 71 71 67 67 66 66 66 66 66 66 69 69 69 68 70 69 68 70 69 69 73 74 75 76 70 72 74 76 75 75 75 71 71 73 74 73
68 69 69 69 71 72 73 73 73 72 72 71 70 73 73 72 72 71 71 71 71 71 68 73 72 73 73 71 71 72 68 66 65 64 65 65 64 64 65 67 67 68 68 68 68 71 68 70 71 73 75 74 73 74 76 76 77 77 75 71 71 73 73
67 68 68 69 69 71 72 73 73 73 70 71 72 73 72 72 71 70 72 71 72 72 70 74 75 74 74 73 72 73 72 67 65 65 64 64 64 63 63 65 66 68 69 67 68 67 68 69 71 74 74 75 73 72 77 77 75 78 77 75 75 74 75
65 66 68 68 68 68 69 71 72 73 73 71 70 71 71 71 71 71 71 70 73 73 73 76 75 75 75 74 74 74 73 74 73 70 71 69 72 69 63 62 64 65 67 71 69 65 65 68 71 69 71 73 71 74 76 77 76 77 78 77 75 74 74
65 65 66 66 68 68 68 68 70 71 72 71 70 69 71 70 71 72 71 71 73 72 74 76 76 75 74 74 75 75 75 75 75 75 74 77 76 69 68 66 66 68 68 68 67 64 64 68 70 70 71 71 73 74 73 73 74 75 75 76 77 76 73
63 64 64 65 66 68 69 70 70 70 71 71 71 70 70 70 71 71 72 71 72 73 73 73 72 71 72 73 73 73 74 76 76 75 76 74 74 74 74 67 67 63 64 67 67 71 72 73 68 66 70 70 72 72 71 70 72 75 76 76 75 76 73
63 64 65 64 66 67 70 70 71 71 71 71 72 73 71 71 73 73 73 73 72 72 72 71 70 70 73 72 73 71 70 72 73 74 75 75 74 75 73 71 67 70 72 68 68 73 77 72 70 64 62 64 69 69 69 67 70 72 69 70 74 74 76
63 64 64 66 66 67 68 68 69 70 70 71 71 73 73 74 74 74 73 72 71 72 72 69 70 72 72 71 70 70 69 69 69 70 72 71 73 73 72 73 74 72 71 70 70 72 71 69 69 71 69 66 65 62 68 68 65 64 65 68 68 74 76
62 63 63 64 64 65 66 65 66 66 66 68 71 71 71 72 72 72 73 73 73 72 72 71 72 71 71 71 72 69 69 70 69 71 72 71 72 74 74 75 74 72 72 73 73 73 73 74 72 73 72 72 72 70 70 68 63 63 64 65 65 67 73
61 62 62 62 63 63 64 64 64 64 65 66 66 67 69 69 70 70 71 72 72 73 73 72 71 71 70 70 70 70 70 70 69 70 70 72 73 74 74 73 73 72 73 73 73 72 73 73 73 73 73 72 72 72 68 65 60 60 61 62 64 65 69
61 61 62 62 62 62 63 63 63 64 64 64 65 65 67 67 68 68 69 70 70 71 71 71 71 70 70 70 70 70 70 71 71 71 70 70 70 71 71 71 72 71 72 72 73 73 73 73 73 73 72 72 71 69 65 61 58 58 59 60 61 64 72
60 61 61 62 62 62 62 62 63 63 63 64 63 64 64 65 66 66 66 67 67 67 68 69 69 70 70 70 70 70 71 71 72 72 72 69 69 69 71 71 72 71 72 72 72 72 73 73 73 72 72 73 73 69 65 61 57 57 57 58 59 64 72
60 61 61 62 62 62 62 63 62 63 63 63 63 63 63 64 65 65 65 65 65 66 67 67 68 68 68 69 70 71 71 72 71 72 72 71 69 69 71 71 72 73 73 72 72 71 71 72 72 72 71 71 72 69 65 62 58 55 55 56 57 66 71
60 61 61 61 62 62 62 62 62 63 62 62 62 62 63 64 64 64 64 64 64 64 65 65 67 67 68 68 69 70 70 70 70 70 70 70 70 70 71 72 72 72 71 71 71 70 70 70 71 71 71 71 71 69 65 63 60 54 54 55 56 64 70
58 59 59 59 59 59 59 60 61 61 61 61 61 62 63 63 63 63 64 64 64 65 65 65 66 67 67 68 69 69 70 69 69 69 70 69 69 70 70 70 70 70 70 71 70 70 71 71 70 71 71 71 70 69 68 66 62 55 54 54 55 62 69
57 57 57 58 58 58 58 60 59 58 59 60 60 60 61 62 62 62 62 62 62 63 63 64 66 67 68 68 68 69 69 69 69 69 69 68 68 69 70 70 70 70 70 70 70 70 70 70 70 69 69 69 70 68 67 66 64 60 53 53 54 57 68
54 53 53 54 55 59 55 56 56 55 56 58 59 60 60 61 61 61 61 61 61 62 63 64 65 65 66 66 65 66 66 66 66 67 67 68 67 68 68 69 68 68 68 68 68 69 70 70 70 69 68 69 68 67 67 66 64 63 54 53 53 55 61
51 52 54 56 57 54 52 52 54 54 54 56 57 58 59 60 61 60 60 60 60 61 62 64 65 65 65 65 64 62 62 65 66 64 64 67 68 67 66 67 66 65 65 65 65 65 64 65 66 67 68 68 68 65 64 64 63 62 57 54 53 53 55
51 52 52 51 50 49 49 50 49 48 51 52 55 57 60 61 61 61 61 60 60 61 62 62 63 64 65 65 65 65 65 65 64 64 65 67 68 68 68 68 68 67 67 65 64 65 64 64 64 65 65 65 65 65 64 64 64 63 62 56 53 52 53
52 51 47 46 47 49 50 51 51 52 53 53 56 57 59 60 60 60 60 60 61 61 62 62 62 64 64 64 64 64 65 65 63 63 65 66 67 68 67 67 67 68 68 67 67 65 64 65 65 65 64 64 63 64 64 63 64 63 62 60 55 53 52
49 48 48 49 48 52 52 52 53 53 54 55 57 58 59 57 57 58 59 59 60 61 60 60 61 61 61 61 62 62 61 61 64 65 65 65 65 64 64 65 65 65 66 65 65 65 65 67 66 66 65 64 65 65 64 63 63 63 63 62 62 57 55
48 49 49 50 52 53 53 54 55 55 56 57 57 57 58 56 56 56 56 57 59 60 60 60 61 61 60 60 60 60 59 59 58 61 64 63 65 62 65 64 63 64 63 64 62 64 64 65 63 62 62 63 65 65 65 64 64 64 63 64 62 62 59
50 50 51 51 52 54 53 52 51 51 51 52 53 54 55 55 55 58 59 59 56 56 57 58 60 60 60 61 57 59 59 59 58 59 63 59 60 61 63 65 61 63 64 64 61 62 63 61 59 64 63 64 63 65 66 63 62 61 60 61 59 58 59
55 54 53 54 54 54 53 53 53 53 53 53 53 54 53 54 55 56 57 55 55 57 58 58 58 57 57 57 58 60 59 59 58 59 56 59 60 58 58 60 60 59 60 60 60 60 59 61 60 61 60 63 61 63 63 57 57 57 56 56 57 57 56
56 56 56 55 55 57 57 55 55 55 55 55 55 55 55 55 56 58 59 58 59 60 60 59 57 58 56 56 57 59 59 59 58 58 55 57 59 57 58 59 60 59 58 58 59 59 58 58 58 59 60 58 59 61 58 57 55 55 48 53 49 55 56
56 55 55 55 56 56 56 56 56 55 55 55 56 55 55 55 55 56 55 58 59 59 59 59 58 57 56 56 54 53 54 57 57 60 60 52 58 58 58 54 47 54 61 57 53 50 49 53 58 59 61 59 57 57 60 56 56 47 43 42 42 43 42
56 56 57 56 56 56 57 57 58 57 56 56 56 55 55 56 56 57 57 58 58 58 58 58 60 58 55 56 55 57 57 53 53 59 62 61 60 59 58 56 57 43 46 52 51 47 41 42 44 47 52 62 56 53 48 49 45 41 41 41 41 41 41
56 56 57 56 56 58 58 58 58 57 57 56 55 54 54 52 54 57 57 59 59 59 59 58 58 60 58 55 56 60 59 58 58 55 57 60 60 60 60 59 60 59 47 43 47 46 42 41 41 42 45 48 55 58 54 47 43 41 41 41 41 41 40